Regional Weather Roundup
Issued by NWS Albany, NY

Home | Current Version | Previous Version | Graphics & Text | Print | Product List | Glossary On
Versions: 1 2 3 4 5 6 7 8 9 10 11 12 13 14 15 16 17 18 19 20 21 22 23 24 25 26 27 28 29 30 31 32 33 34 35 36 37 38 39 40 41 42 43 44 45 46 47 48 49 50
000
ASUS41 KALY 171010
RWRALY

NEW YORK STATE HOURLY WEATHER ROUNDUP
NATIONAL WEATHER SERVICE ALBANY NY
600 AM EDT WED SEP 17 2014

NOTE: "FAIR" INDICATES FEW OR NO CLOUDS BELOW 12,000 FEET WITH NO
SIGNIFICANT WEATHER AND/OR NO OBSTRUCTIONS TO VISIBILITY.

NYZ032-033-038>043-046>054-057>066-NYZ062>081-171100-
EAST


CITY           SKY/WX    TMP DP  RH WIND       PRES   REMARKS
ALBANY         PTCLDY    45  42  89 CALM      30.04S
GLENS FALLS    FOG       41  39  93 CALM      30.03S VSB 1/2
POUGHKEEPSIE   FOG       46  44  93 CALM      30.05R VSB 1/4
NEWBURGH       CLEAR     45  45 100 CALM      30.06R
MONTGOMERY     FOG       41  40  96 CALM      30.05S VSB 3/4
WHITE PLAINS   CLEAR     51  48  89 NW6       30.03R
ISLIP          PTCLDY    50  48  93 CALM      30.01S
NEW YORK CITY  PTCLDY    60  51  72 NW3       30.03R
CENTRAL PARK   CLEAR     57  49  74 NW3       30.06S
$$

NYZ005>009-017-018-044>046-055-056-171100-
CENTRAL


CITY           SKY/WX    TMP DP  RH WIND       PRES   REMARKS
FULTON         CLEAR     45  42  89 CALM      30.04S
SYRACUSE       CLEAR     47  43  86 CALM      30.04S
ROME           MOCLDY    46  45  96 CALM      30.06S
ELMIRA         CLOUDY    47  46  97 CALM      30.07S
BINGHAMTON     MOCLDY    45  43  93 W5        30.05S
MONTICELLO       N/A     37  37 100 CALM      30.07S VSB 1/2
$$

NYZ026>034-041>043-171100-
NORTH


CITY           SKY/WX    TMP DP  RH WIND       PRES   REMARKS
WATERTOWN      CLEAR     41  36  82 E3        30.02S
FORT DRUM      NOT AVBL
MASSENA        CLEAR     44  43  96 SW5       30.00R
SARANAC LAKE   FOG       31  31 100 CALM      29.99S VSB 3/4
PLATTSBURGH    CLEAR     46  44  93 SW5       29.99R
$$

NYZ001>004-010>016-019>021-171100-
WEST


CITY           SKY/WX    TMP DP  RH WIND       PRES   REMARKS
NIAGARA FALLS  CLEAR     44  42  93 CALM      30.03S
BUFFALO        MOCLDY    48  45  89 S6        30.04S
DUNKIRK        MOCLDY    53  48  83 S8        30.05S
JAMESTOWN      MOCLDY    45  43  93 S6        30.07S
WELLSVILLE     MOCLDY    44  41  89 NE3       30.07F
ROCHESTER      MOCLDY    47  44  90 SW6       30.05S
PENN YAN       MOCLDY    50  47  89 SW5       30.05S
$$

             KEY
       WCI = WIND CHILL INDEX
       VSB = VISIBILITY
       HX  = HEAT INDEX
$$


USA.gov is the U.S. government's official web portal to all federal, state and local government web resources and services.